Location: Bronnegerveen
(52.9548°N, 6.8388°E)
Time: 02:05:19
(UTC+00:00)

H-2A R/B - Pass Details

Date: 15 June 2025
Orbit: 555 x 621 km, 98.4° (Epoch: 06 July)

Event Time Altitude Azimuth Distance (km) Brightness Sun altitude
Rises 01:07:18 0° 21° (NNE) 2,752 7.7 -11.0°
Reaches altitude 10° 01:09:35 10° 31° (NNE) 1,852 6.0 -10.9°
Maximum altitude 01:13:16 35° 98° (E) 916 3.1 -10.7°
Drops below altitude 10° 01:16:56 10° 165° (SSE) 1,849 4.0 -10.5°
Enters shadow 01:17:12 - 167° (SSE) 1,947 4.1 -10.4°
